CYIO

Pond Inlet Airport

Airport
ICAO code
CYIO
Summary
ICAO Region
NAM
ICAO Territory
Location

Pond Inlet, Nunavut,

Coordinates
72° 42' 0" N , 77° 57' 31" W
KCC
Airport BS
Non Avian Wildlife Hazards to Aircraft
Airport CFIT
Altimeter Temperature Error Correction
Airport GND
Aircraft Ground De/Anti Icing
Airport WX
Fog
Metar
Observation
CYIO 032000Z 18005KT 40SM FEW050 M35/M39 A2977 RMK SC1 SC TR SLP096
Station
Pond Inlet, N. W. T.
Date/Time
2023-02-03 20:00:00
Wind direction
180°
Wind speed
05 kts
Lowest cloud amount
few clouds
Temperature
-35°C
Dew point
-39°C
Humidity
66%
Weather condition
n/a

Description

Airport serving Pond Inlet, Nunavut, Canada, operated by the government of Nunavut

Climatology

Tundra climate (Köppen climate classification ET) - warmest month has an average temperature of 0 - 10 degrees C.

Runways

Designator Length Width Surface Rops
02T/20T 1219 30 GVL No/No

Airport map

Aerial View

SKYbrary Partners:

Safety knowledge contributed by: